Torna al catalogo

STARLINK-37361

AttivoComunicazioniSSO
NORAD 69134·PAYLOAD·🇺🇸 United States

Lanciato May 20, 2026 da Vandenberg Space Force Base

Loading…

Prossimi Passaggi (prossime 24 ore)

TLE

AggiornatoSource: CelesTrak SupGP

Epoca: Sep 14, 2026, 14:36 UTC

1 69134C 26110L   26257.60881944 -.00068681  00000+0 -21327-2 0  2579
2 69134  97.2850  92.7452 0001722  85.2534 245.4687 15.33463232    13

Traccia STARLINK-37361 in tempo reale con AllMySat

Download on the App Store